Location: Unspecified
(47.2500°N, 0.0000°E)
Time: 17:53:32
(UTC+00:00)

Tiangong 2 - Visible Passes

Search period start: 20 June 2019 00:00
Search period end: 30 June 2019 00:00
Orbit: 376 x 389 km, 42.8° (Epoch: 20 June)

Date Brightness Start Highest point End Pass type
(mag) Time Alt. Az. Time Alt. Az. Time Alt. Az.
26 Jun 3.5 03:14:54 10° S 03:16:14 12° SSE 03:17:34 10° SE visible
28 Jun 3.0 02:50:41 13° SSW 02:52:13 17° SSE 02:54:24 10° ESE visible
29 Jun 3.6 01:52:59 11° SE 01:52:59 11° SE 01:53:26 10° SE visible
29 Jun 2.2 03:25:31 10° SW 03:28:19 29° SSE 03:31:08 10° ESE visible
